#timestamp,LO_Frequency,Hit,StdDev 
1546495215.2,286047001.4,N
1546495235.0,286047002.4,N
1546495235.9,286047002.4,Y
1546495255.7,286047000.2,P
1546495275.6,286046998.4,N
1546495295.4,286046999.2,N
1546495315.3,286046999.1,N
1546495335.1,286047001.2,N
1546495336.0,286047001.2,N
1546495355.8,286046999.0,N
1546495375.7,286046998.8,N
1546495395.5,286047001.2,N
1546495415.3,286047000.8,N
1546495435.2,286046998.3,N
1546495455.0,286046998.8,N
1546495455.9,286046998.8,N
1546495475.8,286046998.7,N
1546495495.6,286046999.4,N
1546495515.4,286046999.6,N
1546495535.3,286046999.5,N
1546495555.1,286046996.5,Y
1546495575.9,286046999.5,P
1546495595.7,286046998.9,P
1546495615.5,286046996.8,P
1546495635.4,286046995.4,Y
1546495655.2,286046998.0,P
1546495675.0,286046995.6,P
1546495675.9,286046995.6,P
1546495695.8,286046995.0,Y
1546495715.6,286046999.3,P
1546495735.5,286046998.7,N
1546495755.3,286047000.4,N
1546495775.1,286046998.5,N
1546495795.9,286046999.3,N
1546495815.7,286046998.5,N
1546495835.5,286047000.8,N
1546495855.4,286046999.8,N
1546495875.2,286047002.4,N
1546495895.1,286047000.9,N
1546495896.0,286047000.9,N
1546495915.8,286046998.2,N
1546495935.6,286046999.1,N
1546495955.5,286046999.2,N
1546495975.3,286046997.4,N
1546495995.1,286046999.0,N
1546496015.9,286046999.3,N
1546496035.7,286047002.5,N
1546496055.6,286047001.0,N
1546496075.4,286047000.5,N
1546496095.2,286047000.5,N
1546496115.1,286047000.4,N
1546496116.0,286047000.4,N
1546496135.8,286047001.0,N
1546496155.6,286046999.9,N
1546496175.5,286047002.0,N
1546496195.3,286047001.7,N
1546496215.2,286047001.8,N
1546496235.9,286047002.2,N
1546496255.7,286046999.9,N
1546496275.6,286047002.1,N
1546496295.4,286047001.7,N
1546496315.2,286047004.1,Y
1546496335.1,286047001.7,P
1546496336.0,286047001.7,N
1546496355.8,286047001.5,N
1546496375.7,286047002.6,Y
1546496395.5,286046999.1,P
1546496415.3,286046999.4,N
1546496435.2,286046998.8,N
1546496455.0,286046999.8,N
1546496455.9,286046999.8,N
1546496475.7,286046998.2,N
1546496495.6,286046998.9,N
1546496515.4,286046998.9,N
1546496535.3,286046998.8,N
1546496555.1,286046998.6,N
1546496556.0,286046998.6,N
1546496575.8,286047000.2,N
1546496595.7,286046998.8,N
1546496615.5,286046998.7,N
1546496635.3,286047000.7,N
1546496655.2,286047004.2,Y
1546496675.0,286047004.1,P
1546496675.9,286047004.1,N
1546496695.8,286047003.7,N
1546496715.6,286047006.0,N
1546496735.4,286047005.9,N
1546496755.3,286047007.5,Y
1546496775.1,286047001.5,P
1546496795.9,286047000.1,N
1546496815.7,286047000.8,N
1546496835.5,286046999.0,N
1546496855.4,286046998.7,N
1546496875.2,286046998.8,N
1546496895.0,286046999.9,N
1546496895.9,286046999.9,N
1546496915.8,286047000.9,N
1546496935.6,286047011.9,Y
1546496955.5,286046999.7,P
1546496975.3,286047000.5,N
1546496995.1,286046998.3,P
1546497015.9,286046999.1,N
1546497035.7,286046998.3,N
1546497055.6,286046996.7,Y
1546497075.4,286046995.0,P
1546497095.2,286046996.7,N
1546497115.1,286046997.5,N
1546497116.0,286046997.5,N
1546497135.8,286047000.0,N
1546497155.6,286046998.1,N
1546497175.5,286046999.3,N
1546497195.3,286046998.8,N
1546497215.2,286046997.9,N
1546497235.9,286046996.6,N
1546497255.7,286046996.7,N
1546497275.6,286046998.2,N
1546497295.4,286046999.6,N
1546497315.3,286046996.7,N
1546497335.1,286046996.8,N
1546497336.0,286046996.8,N
1546497355.8,286046995.3,Y
1546497375.7,286046999.6,P
1546497395.5,286046997.3,N
1546497415.4,286046997.9,N
1546497435.2,286046994.9,Y
1546497455.0,286046997.0,P
1546497455.9,286046997.0,P
1546497475.8,286047001.0,N
1546497495.6,286047001.4,N
1546497515.4,286047000.5,N
1546497535.3,286047000.8,N
1546497555.1,286046998.7,N
1546497575.9,286047001.1,N
1546497595.7,286046998.6,N
1546497615.5,286047000.8,N
1546497635.4,286047000.2,N
1546497655.2,286047001.2,N
1546497675.0,286046998.4,N
1546497676.0,286046998.4,N
1546497695.8,286046999.3,N
1546497715.6,286047000.8,N
1546497735.5,286046998.7,N
1546497755.3,286047002.8,N
1546497775.1,286047000.5,N
1546497795.9,286047000.1,N
1546497815.7,286047000.3,N
1546497835.5,286047000.3,N
1546497855.4,286046999.8,N
1546497875.2,286047002.1,N
1546497895.1,286047002.5,N
1546497896.0,286047002.5,N
1546497915.8,286047001.6,N
1546497935.6,286047001.4,N
1546497955.5,286047001.9,N
1546497975.3,286047002.4,N
1546497995.1,286047000.0,N
1546498015.9,286047000.1,N
1546498035.7,286047002.4,N
1546498055.6,286047002.0,N
1546498075.4,286047001.3,N
1546498095.2,286047004.4,Y
1546498115.1,286047004.4,P
1546498116.0,286047004.4,N
1546498135.8,286047002.4,N
1546498155.7,286046999.9,N
1546498175.5,286047000.3,N
1546498195.3,286047000.8,N
1546498215.2,286047001.2,N
1546498235.9,286046998.2,N
1546498255.7,286046998.3,N
1546498275.6,286046996.6,N
1546498295.4,286046996.9,N
1546498315.2,286046996.7,N
1546498335.1,286046996.8,N
1546498336.0,286046996.8,N
1546498355.8,286046997.8,N
1546498375.7,286046997.5,N
1546498395.5,286046995.5,N
1546498415.3,286046997.9,N
1546498435.2,286046997.7,N
1546498455.0,286046997.7,N
1546498455.9,286046997.7,N
1546498475.7,286046995.4,N
1546498495.6,286046995.2,N
1546498515.4,286046997.2,N
1546498535.3,286046996.7,N
1546498555.1,286046996.7,N
1546498556.0,286046996.7,N
1546498575.8,286046996.7,N
1546498595.7,286046996.5,N
1546498615.5,286046996.5,N
1546498635.3,286046997.1,N
1546498655.2,286046997.4,N
1546498675.0,286046996.6,N
1546498675.9,286046996.6,N
1546498695.8,286046997.2,N
1546498715.6,286046996.6,N
1546498735.4,286046996.6,Y
1546498755.3,286047000.0,P
1546498775.1,286047002.8,N
1546498795.9,286047000.0,N
